This is the latest recevied weather packets stored in our database for station/object KC1BRV. If no packets are shown the sender has not sent any weather packets the latest 10 day(s).
| Time | Temp. | Humidity | Pressure | Rain* | Wind** | Luminosity | Snow |
|---|---|---|---|---|---|---|---|
| 1788547764 | 27.78° C | 59% | 1010 hPa | 0 mm | - | 516 W/m² | - |
| 1788547459 | 27.22° C | 59% | 1010.1 hPa | 0 mm | - | 570 W/m² | - |
| 1788547154 | 27.22° C | 59% | 1010 hPa | 0 mm | - | 582 W/m² | - |
| 1788546850 | 27.22° C | 61% | 1010.1 hPa | 0 mm | - | 643 W/m² | - |
| 1788546546 | 27.22° C | 59% | 1010.2 hPa | 0 mm | - | 471 W/m² | - |
| 1788546246 | 27.78° C | 58% | 1010 hPa | 0 mm | - | 118 W/m² | - |
| 1788545940 | 27.78° C | 61% | 1010 hPa | 0 mm | - | 625 W/m² | - |
| 1788545635 | 27.78° C | 58% | 1010 hPa | 0 mm | - | 610 W/m² | - |
| 1788545331 | 27.78° C | 58% | 1009.9 hPa | 0 mm | - | 644 W/m² | - |
| 1788545026 | 27.78° C | 58% | 1010.1 hPa | 0 mm | - | 629 W/m² | - |
| 1788544725 | 27.22° C | 59% | 1009.9 hPa | 0 mm | - | 645 W/m² | - |
| 1788544425 | 27.78° C | 61% | 1010 hPa | 0 mm | - | 683 W/m² | - |
| 1788544124 | 27.78° C | 59% | 1010.1 hPa | 0 mm | - | 656 W/m² | - |
| 1788543820 | 27.78° C | 60% | 1010.1 hPa | 0 mm | - | 118 W/m² | - |
| 1788543516 | 27.78° C | 62% | 1010.2 hPa | 0 mm | - | 701 W/m² | - |
| 1788543211 | 27.78° C | 59% | 1010.2 hPa | 0 mm | - | 696 W/m² | - |
| 1788542908 | 27.22° C | 63% | 1010.3 hPa | 0 mm | - | 667 W/m² | - |
| 1788542606 | 27.78° C | 61% | 1010.4 hPa | 0 mm | - | 155 W/m² | - |
| 1788542302 | 27.78° C | 59% | 1010.5 hPa | 0 mm | - | 685 W/m² | - |
| 1788541997 | 27.22° C | 60% | 1010.5 hPa | 0 mm | - | 686 W/m² | - |
| 1788541693 | 27.22° C | 63% | 1010.6 hPa | 0 mm | - | 156 W/m² | - |
| 1788541389 | 26.11° C | 64% | 1010.4 hPa | 0 mm | - | 705 W/m² | - |
| 1788541089 | 26.67° C | 64% | 1010.3 hPa | 0 mm | - | 109 W/m² | - |
| 1788540788 | 27.78° C | 60% | 1010.5 hPa | 0 mm | - | 99 W/m² | - |
| 1788540482 | 26.67° C | 62% | 1010.7 hPa | 0 mm | - | 706 W/m² | - |
* Rain latest hour (hover to see other rain measurements)
** Current wind speed in m/s (hover to see current wind gust speed)